Lid_Strength_Index
3 3 3 3 2 2 2 2 1 1 1 1 1 0 0 -0 -0 0 0 -0 0 0 0 -0 -1 -1 -1 -1 -1 -1 -1 -0 -0
4 4 3 3 2 2 2 2 1 1 1 1 1 0 0 0 -0 -0 0 -1 -1 -0 -1 -0 -1 -1 -1 -1 -1 -1 -1 -1 -0
3 4 3 3 3 2 2 1 1 1 1 1 1 0 0 0 0 -0 -0 -0 -0 -1 -1 -1 -1 -1 -1 -1 -1 -1 -1 -0 -1
3 3 3 3 2 2 2 1 1 1 1 1 1 0 0 0 0 -0 -0 -0 -0 -0 -1 -1 -1 -1 -1 -1 -1 -1 -1 -1 -1
3 3 3 3 2 2 2 2 1 1 1 1 1 1 1 0 0 -0 0 0 -0 -1 -0 -1 -1 -1 -1 -0 -1 -1 -0 -0 -0
3 4 3 3 3 3 2 2 2 1 1 1 1 1 1 0 1 0 0 0 -0 -1 -0 -0 -1 -0 -0 -0 -0 -0 -0 -0 -0
4 4 3 3 3 3 2 2 2 1 1 1 1 1 1 1 1 0 0 -0 -0 -0 -1 -0 -0 -0 -0 -0 -0 -0 -0 -0 -0
4 4 4 4 3 3 2 2 2 1 1 1 1 1 1 1 0 0 0 0 -0 -0 -0 -0 -0 -0 -0 -0 -0 -0 -0 -0 -0
4 4 4 3 3 3 3 2 2 2 1 1 1 1 1 0 0 0 0 0 0 -0 0 -0 -0 -0 0 0 0 4 3 1 0
4 4 4 3 3 3 2 2 2 2 1 1 1 1 1 1 1 1 1 0 0 0 0 -0 0 0 0 0 1 7 7 7 1
4 4 4 3 3 2 2 1 1 1 1 1 1 2 1 1 1 1 1 1 1 1 1 1 1 0 -0 0 1 7 8 7 2
3 3 3 3 2 2 2 1 1 1 2 1 2 2 1 1 2 1 1 1 1 1 1 1 1 2 2 3 2 6 6 3 -0
3 3 2 2 2 2 2 2 1 2 2 2 2 2 1 1 1 1 1 1 1 1 1 2 3 2 1 5 0 3 4 3 1
3 2 3 2 2 2 2 2 2 3 2 6 7 6 5 4 2 2 1 2 2 2 2 2 2 1 -1 -0 -0 -0 4 4 2
3 3 3 2 2 2 2 1 2 3 3 4 4 4 5 6 5 5 3 2 2 2 2 1 1 -0 0 -1 -0 3 3 5 5
3 3 3 2 3 3 2 1 1 3 2 2 3 3 4 5 5 5 3 2 2 2 1 2 1 1 1 1 1 1 4 4 5
3 2 3 2 3 3 3 2 1 1 1 1 1 2 6 6 6 4 3 3 2 3 2 1 1 1 1 1 1 2 3 4 3
3 3 2 3 3 3 3 2 1 1 1 1 1 2 4 5 5 4 4 2 3 2 1 2 1 1 1 2 3 3 8 10 8
3 3 2 3 3 3 3 2 1 1 1 1 2 4 4 5 5 4 3 3 3 7 6 7 9 10 6 2 6 9 10 12 12
4 2 2 2 3 2 2 2 2 1 2 2 3 4 4 3 3 2 1 1 1 2 5 8 8 8 9 10 10 10 9 10 11